Location: Escondida
(34.1015°N, 106.8964°W)
Time: 15:31:44
(UTC+00:00)

FengYun 1-2 T - Pass Details

Date: 11 December 2025
Orbit: 845 x 879 km, 98.8° (Epoch: 19 January)

Event Time Altitude Azimuth Distance (km) Brightness Sun altitude
Rises 12:07:14 0° 7° (N) 3,482 7.3 -23.4°
Reaches altitude 10° 12:09:40 10° 4° (N) 2,540 6.6 -22.9°
Maximum altitude 12:15:11 57° 287° (WNW) 1,031 4.2 -21.8°
Drops below altitude 10° 12:20:40 10° 210° (SSW) 2,518 6.5 -20.7°
Sets 12:23:04 0° 206° (SSW) 3,449 7.3 -20.2°
